User: anonymous   Login
Location: Unspecified
(0.0000°N, 0.0000°E)
Time: 13:11:55
(UTC+00:00)
Language:

Astrid - Orbit

View from above orbital plane
View from above orbital plane
View from above satellite
View from above satellite

Ground track
Ground track

The orbit data is extracted from the following two-line orbital elements,

1 23464U 95002B   20048.73439498  .00000034  00000-0  20059-4 0  9993
2 23464  82.9265 288.1114 0042159  90.1301 270.4685 13.72586559255389
Epoch (UTC): 17 February 2020 17:37:31
Eccentricity: 0.0042159
inclination: 82.9265°
perigee height: 959 km
apogee height: 1021 km
right ascension of ascending node: 288.1114°
argument of perigee: 90.1301°
revolutions per day: 13.72586559
mean anomaly at epoch: 270.4685°
orbit number at epoch: 25538

The dashed part of the orbit path shows where the satellite is in the earth's shadow,  

DLR